This is the latest recevied weather packets stored in our database for station/object KLRF. If no packets are shown the sender has not sent any weather packets the latest 10 day(s).
| Time | Temp. | Humidity | Pressure | Rain* | Wind** | Luminosity | Snow |
|---|---|---|---|---|---|---|---|
| 1787939011 | 30.56° C | 52% | 1019.3 hPa | - | - | - | - |
| 1787938411 | 30.56° C | 52% | 1019.3 hPa | - | - | - | - |
| 1787937811 | 30.56° C | 52% | 1019.3 hPa | - | - | - | - |
| 1787937212 | 30° C | 51% | 1019.3 hPa | - | - | - | - |
| 1787936614 | 28.89° C | 54% | 1019.6 hPa | - | - | - | - |
| 1787936012 | 28.89° C | 54% | 1019.6 hPa | - | - | - | - |
| 1787935411 | 28.89° C | 54% | 1019.6 hPa | - | - | - | - |
| 1787934811 | 26.67° C | 65% | 1019.3 hPa | - | - | - | - |
| 1787934210 | 26.67° C | 65% | 1019.3 hPa | - | - | - | - |
| 1787933611 | 26.67° C | 65% | 1019.3 hPa | - | - | - | - |
| 1787933012 | 26.67° C | 65% | 1019.3 hPa | - | - | - | - |
| 1787932413 | 26.67° C | 65% | 1019.3 hPa | - | - | - | - |
| 1787931811 | 26.67° C | 65% | 1019.3 hPa | - | - | - | - |
| 1787931211 | 26.67° C | 65% | 1019.3 hPa | - | - | - | - |
| 1787930614 | 26.67° C | 65% | 1019.3 hPa | - | - | - | - |
| 1787930012 | 26.67° C | 65% | 1019.3 hPa | - | - | - | - |
| 1787929413 | 25.56° C | 69% | 1019 hPa | - | - | - | - |
| 1787928812 | 25.56° C | 69% | 1019 hPa | - | - | - | - |
| 1787928212 | 25.56° C | 69% | 1019 hPa | - | - | - | - |
| 1787927611 | 25.56° C | 69% | 1019 hPa | - | - | - | - |
| 1787927013 | 25.56° C | 69% | 1019 hPa | - | - | - | - |
| 1787926409 | 25.56° C | 69% | 1019 hPa | - | - | - | - |
| 1787925811 | 23.89° C | 78% | 1018.6 hPa | - | - | - | - |
| 1787925210 | 23.89° C | 78% | 1018.6 hPa | - | - | - | - |
| 1787924613 | 23.89° C | 78% | 1018.6 hPa | - | - | - | - |
* Rain since midnight (hover to see other rain measurements)
** Current wind speed in m/s (hover to see current wind gust speed)